This demonstration page uses our WeatherBlox Daily Observations layout. Learn more.

41.55636, -103.73856

Hourly Observations for July 22, 2019

Temp ( °F °C ) Dew Point ( °F °C ) Humidity (%) Winds ( mph kmh ) Pressure ( in mb ) Visibility ( mi km ) Precip ( " mm )
12:53 am 00:53 Cloudy 63 17.2 59 15 87 87 E 9 15 30.24 1024 10 16.09344 0 0
1:53 am 01:53 Cloudy 63 17.2 59 15 87 87 ESE 10 17 30.24 1024 10 16.09344 0 0
2:53 am 02:53 Cloudy 63 17.2 59 15 87 87 ESE 8 13 30.21 1023 10 16.09344 0 0
3:53 am 03:53 Cloudy 63 17.2 59 15 87 87 ESE 12 19 30.21 1023 10 16.09344 0 0
4:53 am 04:53 Cloudy 62 16.7 59 15 90 90 SE 8 13 30.21 1023 10 16.09344 0 0
5:53 am 05:53 Cloudy 62 16.7 60 15.6 93 93 ESE 10 17 30.21 1023 10 16.09344 0 0
6:53 am 06:53 Cloudy 62 16.7 59 15 90 90 ESE 12 19 30.24 1024 10 16.09344 0 0
7:53 am 07:53 Cloudy 63 17.2 59 15 87 87 ESE 10 17 30.24 1024 10 16.09344 0 0
8:14 am 08:14 Cloudy 63 17 61 16 94 94 ESE 12 19 30.24 1024 10 16.09344 0 0
8:26 am 08:26 Cloudy 63 17.2 59 15 87 87 ESE 13 20 30.21 1023 10 16.09344 0 0
8:35 am 08:35 Cloudy 64 17.8 60 15.6 87 87 ESE 10 17 30.21 1023 10 16.09344 0 0
8:53 am 08:53 Cloudy 64 17.8 60 15.6 87 87 ESE 12 19 30.27 1025 10 16.09344 0 0
9:53 am 09:53 Cloudy 66 18.9 60 15.6 81 81 ESE 14 22 30.27 1025 10 16.09344 0 0
10:53 am 10:53 Cloudy 69 20.6 61 16.1 76 76 ESE 12 19 30.24 1024 10 16.09344 0 0
11:12 am 11:12 Cloudy 70 21 61 16 73 73 ESE 16 26 30.18 1022 10 16.09344 0 0
11:53 am 11:53 Cloudy 72 22.2 62 16.7 71 71 ESE 14 22 30.24 1024 10 16.09344 0 0
12:40 pm 12:40 Cloudy 73 23 63 17 69 69 SE 10 17 30.15 1021 10 16.09344 0 0
12:53 pm 12:53 Mostly Cloudy 75 23.9 62 16.7 64 64 ESE 8 13 30.21 1023 10 16.09344 0 0
1:53 pm 13:53 Partly Cloudy 79 26.1 63 17.2 58 58 E 12 19 30.18 1022 10 16.09344 0 0
2:53 pm 14:53 Partly Cloudy 81 27.2 63 17.2 54 54 E 15 24 30.15 1021 10 16.09344 0 0
3:53 pm 15:53 Sunny 82 27.8 62 16.7 51 51 ESE 15 24 30.15 1021 10 16.09344 0 0
4:53 pm 16:53 Sunny 80 26.7 62 16.7 54 54 ESE 16 26 30.12 1020 10 16.09344 0 0
5:53 pm 17:53 Sunny 79 26.1 61 16.1 54 54 ESE 17 28 30.12 1020 10 16.09344 0 0
6:53 pm 18:53 Sunny 78 25.6 61 16.1 56 56 ESE 17 28 30.12 1020 10 16.09344 0 0
7:53 pm 19:53 Sunny 74 23.3 61 16.1 64 64 ESE 14 22 30.15 1021 10 16.09344 0 0
8:53 pm 20:53 Clear 71 21.7 60 15.6 68 68 ESE 12 19 30.18 1022 10 16.09344 0 0
9:53 pm 21:53 Mostly Clear 68 20 60 15.6 76 76 ESE 10 17 30.21 1023 10 16.09344 0 0
10:53 pm 22:53 Mostly Cloudy 67 19.4 60 15.6 79 79 ESE 10 17 30.18 1022 10 16.09344 0 0
11:53 pm 23:53 Mostly Clear 67 19.4 59 15 76 76 ESE 10 17 30.18 1022 10 16.09344 0 0

Powered by AerisWeather